Tracking 20092 objects as of 14-Dec-2019
HD Live streaming from Space Station
objects crossing your sky now

COSMOS 2251 DEB

Track COSMOS 2251 DEB now!
10-day predictions


NORAD ID: 35726
Int'l Code: 1993-036AQX
Perigee: 658.4 km
Apogee: 714.8 km
Inclination: 74.1 °
Period: 98.3 minutes
Semi major axis: 7057 km
RCS: 0.0103 m2 (small)
Launch date: June 16, 1993
Source: Commonwealth of Independent States (former USSR) (CIS)
Launch site: PLESETSK MISSILE AND SPACE COMPLEX (PKMTR)

Note: This is SATELLITE DEBRIS
aabbcc
Your satellite tracking list
Your tracking list is empty




NASA's NSSDC Master Catalog

Two Line Element Set (TLE):
1 35726U 93036AQX 19347.66317691  .00000825  00000-0  16058-3 0  9995
2 35726  74.0512  90.6175 0039940  24.3377 335.9665 14.64253873559574
Source of the keplerian elements: AFSPC